Flag for Malaysia Weather past 2 weeks in Kuala Lumpur, Malaysia

Now
88 °F

Broken clouds.


Feels Like: 98 °F
Forecast: 74 / 89 °F
Wind: 7 mph from Southwest

Location: Sultan Abdul Aziz Shah-Subang

Current Time: Aug 30, 2014 at 5:12:58 PM

Latest Report: Aug 30, 2014 at 4:00 PM


Visibility: N/A

Pressure: 29.74 "Hg

Humidity: 66%

Dew point: 75 °F

Location of Kuala LumpurLocation

Historic Weather in Kuala Lumpur — Graph

°F

Kuala Lumpur temperature yesterday

Maximum temperature yesterday: 88 °F (at 4:00 PM)
Minimum temperature yesterday: 77 °F (at 5:00 AM)
Average temperature yesterday: 82 °F

Past Weeks' High & Low Weather Summary

 TemperatureHumidityPressure
High93 °F (Aug 22, 2:00 PM)100% (Aug 17, 2:00 AM)29.95 "Hg (Aug 17, 2:00 AM)
Low73 °F (Aug 16, 10:00 AM)49% (Aug 22, 2:00 PM)29.71 "Hg (Aug 22, 4:00 PM)
Average82 °F78%29.83 "Hg
* Reported Aug 15 4:00 PM — Aug 30 3:00 PM, Kuala Lumpur, Weather by CustomWeather, © 2014

Note: Actual official high and low records may vary slightly from our data, if they occured in-between our weather recording intervals... More about our weather records

Advertising

Kuala Lumpur weather history for previous 24 hours

 ConditionsComfort  
Time TempWeatherWind HumidityBarometerVisibility
3:00 PM
Aug 30
91 °FBroken clouds.6 mph52%29.74 "HgN/A
2:00 PM93 °FBroken clouds.7 mph53%29.77 "HgN/A
1:00 PM91 °FBroken clouds.3 mph59%29.80 "HgN/A
12:00 PM91 °FBroken clouds.5 mph56%29.83 "HgN/A
11:00 AM88 °FBroken clouds.2 mph66%29.86 "HgN/A
10:00 AM86 °FBroken clouds.1 mph70%29.89 "HgN/A
9:00 AM82 °FBroken clouds.2 mph79%29.86 "HgN/A
8:00 AM79 °FPartly sunny.1 mph89%29.86 "Hg6 mi
7:00 AM79 °FPartly cloudy.No wind89%29.83 "Hg4 mi
6:00 AM79 °FPartly cloudy.No wind89%29.83 "Hg4 mi
5:00 AM79 °FPassing clouds.2 mph89%29.80 "Hg4 mi
3:00 AM79 °FPartly cloudy.No wind89%29.80 "Hg4 mi
2:00 AM81 °FPartly cloudy.No wind84%29.83 "Hg4 mi
1:00 AM81 °FPassing clouds.No wind84%29.83 "Hg5 mi
12:00 AM81 °FPassing clouds.2 mph84%29.86 "Hg5 mi
11:00 PM
Aug 29
82 °FPartly cloudy.3 mph79%29.86 "Hg5 mi
10:00 PM84 °FPartly cloudy.3 mph74%29.86 "Hg5 mi
9:00 PM84 °FPassing clouds.3 mph74%29.83 "HgN/A
8:00 PM84 °FPartly cloudy.5 mph74%29.80 "HgN/A
7:00 PM84 °FBroken clouds.5 mph74%29.80 "HgN/A
6:00 PM86 °FMore clouds than sun.9 mph70%29.77 "HgN/A
5:00 PM88 °FMore clouds than sun.6 mph62%29.77 "HgN/A
Weather by CustomWeather, © 2014

See weather overviewHow to use our weather pages